Location: Eindhoven
(51.4416°N, 5.4697°E)
Time: 16:56:47
(UTC+01:00)

Tiros 1 - Pass Details

Date: 17 November 2019
Orbit: 630 x 664 km, 48.4° (Epoch: 11 December)

Event Time Altitude Azimuth Distance (km) Brightness Sun altitude
Rises 20:31:22 0° 278° (W) 2,930 11.6 -34.6°
Reaches altitude 10° 20:33:52 10° 269° (W) 2,024 10.4 -35.0°
Enters shadow 20:35:24 19° 257° (WSW) 1,533 9.6 -35.2°
